KAZTUBAC1 Weather Reports


time (UTC)temp
C
wind
direction
speed
KPH
gust
KPH
rain 1hr
cm
rain 24hr
cm
rain mn
cm
humidity
%
barometer
mb
20260504070134 20 0 9.7 24.1 0.00 0.00 0.00 26 1007.6
20260504045827 21 0 6.4 19.3 0.00 0.00 0.00 21 1007.9
20260504044820 21 0 4.8 16.1 0.00 0.00 0.00 21 1008.4
20260504043805 21 0 3.2 11.3 0.00 0.00 0.00 21 1008.4
20260504042748 21 0 1.6 11.3 0.00 0.00 0.00 19 1008.3
20260504041757 21 0 4.8 19.3 0.00 0.00 0.00 18 1008.4
20260504040738 21 0 3.2 19.3 0.00 0.00 0.00 17 1008.4
20260504035714 22 0 4.8 19.3 0.00 0.00 0.00 17 1008.1
20260504034708 22 0 4.8 19.3 0.00 0.00 0.00 18 1007.9
20260504033723 22 0 6.4 19.3 0.00 0.00 0.00 18 1007.9
20260504032653 22 0 1.6 16.1 0.00 0.00 0.00 18 1007.9
20260504031631 22 0 1.6 17.7 0.00 0.00 0.00 17 1007.7
20260504030646 22 0 3.2 17.7 0.00 0.00 0.00 16 1007.7
20260504025700 22 0 3.2 17.7 0.00 0.00 0.00 15 1007.4
20260504023545 23 0 11.3 24.1 0.00 0.00 0.00 14 1007.1
20260504022544 23 0 14.5 25.7 0.00 0.00 0.00 14 1006.8
20260504021509 23 0 11.3 25.7 0.00 0.00 0.00 13 1006.6
20260504020513 23 0 11.3 20.9 0.00 0.00 0.00 12 1006.5
20260504015536 24 0 12.9 27.4 0.00 0.00 0.00 12 1006.2
20260504014549 24 0 14.5 27.4 0.00 0.00 0.00 11 1006.3
20260504013606 25 0 9.7 22.5 0.00 0.00 0.00 10 1006.3
20260504012630 25 0 8.0 16.1 0.00 0.00 0.00 8 1006.2
20260504011556 26 0 11.3 24.1 0.00 0.00 0.00 7 1006.0
20260504010538 26 0 12.9 24.1 0.00 0.00 0.00 6 1006.2
20260504005601 27 0 9.7 22.5 0.00 0.00 0.00 5 1006.1
20260504004602 27 0 11.3 33.8 0.00 0.00 0.00 4 1005.9
20260504002511 27 0 16.1 30.6 0.00 0.00 0.00 5 1005.9
20260504001534 28 0 11.3 30.6 0.00 0.00 0.00 4 1005.7
20260503234345 28 0 6.4 19.3 0.00 0.00 0.00 6 1005.7
20260503233341 28 0 11.3 25.7 0.00 0.00 0.00 5 1005.9
20260503232321 28 0 11.3 29.0 0.00 0.00 0.00 5 1005.8
20260503231322 28 0 11.3 29.0 0.00 0.00 0.00 5 1006.0
20260503230327 28 0 14.5 41.8 0.00 0.00 0.00 6 1005.9
20260503225310 28 0 12.9 41.8 0.00 0.00 0.00 5 1006.2
20260503224306 28 0 14.5 37.0 0.00 0.00 0.00 4 1006.4
20260503222115 29 0 9.7 27.4 0.00 0.00 0.00 5 1006.2
20260503221102 30 0 12.9 32.2 0.00 0.00 0.00 6 1006.3
20260503220052 30 0 14.5 32.2 0.00 0.00 0.00 6 1006.2
20260503215027 30 0 11.3 27.4 0.00 0.00 0.00 8 1006.2
20260503214009 30 0 12.9 27.4 0.00 0.00 0.00 8 1006.0
20260503212958 30 0 8.0 29.0 0.00 0.00 0.00 8 1005.9
20260503212002 30 0 11.3 29.0 0.00 0.00 0.00 7 1006.0
20260503211007 30 0 14.5 25.7 0.00 0.00 0.00 7 1006.3
20260503205002 29 0 9.7 33.8 0.00 0.00 0.00 9 1006.6
20260503204025 29 0 12.9 33.8 0.00 0.00 0.00 9 1006.7
20260503203008 29 0 14.5 32.2 0.00 0.00 0.00 10 1006.7
20260503202033 28 0 14.5 32.2 0.00 0.00 0.00 10 1006.7
20260503201003 28 0 16.1 38.6 0.00 0.00 0.00 9 1006.6
20260503195941 28 0 16.1 38.6 0.00 0.00 0.00 8 1006.8
20260503194927 29 0 16.1 33.8 0.00 0.00 0.00 10 1006.8
20260503193910 28 0 12.9 33.8 0.00 0.00 0.00 9 1007.0
20260503192930 29 0 12.9 33.8 0.00 0.00 0.00 10 1007.1
20260503191925 29 0 16.1 33.8 0.00 0.00 0.00 9 1007.4
20260503190855 29 0 12.9 27.4 0.00 0.00 0.00 12 1007.4
20260503185833 28 0 14.5 30.6 0.00 0.00 0.00 11 1007.9
20260503184827 27 0 11.3 30.6 0.00 0.00 0.00 13 1007.9
20260503183845 27 0 9.7 25.7 0.00 0.00 0.00 14 1008.0
20260503182855 27 0 4.8 16.1 0.00 0.00 0.00 16 1008.2
20260503181849 26 0 6.4 20.9 0.00 0.00 0.00 19 1008.5
20260503180818 26 0 8.0 20.9 0.00 0.00 0.00 19 1008.5
20260503175814 26 0 4.8 12.9 0.00 0.00 0.00 24 1008.7
20260503174803 26 0 4.8 14.5 0.00 0.00 0.00 26 1009.0
20260503173825 25 0 3.2 16.1 0.00 0.00 0.00 25 1009.4
20260503171713 25 0 3.2 16.1 0.00 0.00 0.00 27 1009.5
20260503170728 24 0 3.2 16.1 0.00 0.00 0.00 26 1009.6
20260503150812 19 0 6.4 14.5 0.00 0.00 0.00 40 1009.3
20260503110521 16 0 1.6 6.4 0.00 0.00 0.00 39 1008.7
20260503090132 17 0 0.0 8.0 0.00 0.00 0.00 33 1009.1
20260503081058 17 0 0.0 1.6 0.00 0.00 0.00 42 1009.7
20260503080117 18 0 0.0 1.6 0.00 0.00 0.00 41 1009.9
20260503072936 18 0 1.6 3.2 0.00 0.00 0.00 39 1009.6
20260503071937 18 0 1.6 3.2 0.00 0.00 0.00 39 1009.7
20260503070921 18 0 0.0 6.4 0.00 0.00 0.00 40 1009.6